Location: Arroyo Retuerta
(40.5469°N, 4.3534°W)
Time: 12:12:51
(UTC+00:00)

ATLAS 2AS CENTAUR R/B - Pass Details

Date: 01 June 2020
Orbit: 925 x 1286 km, 63.7° (Epoch: 24 June)

Event Time Altitude Azimuth Distance (km) Brightness Sun altitude
Exits shadow 22:00:07 29° 165° (SSE) 2,164 3.7 -19.8°
Maximum altitude 22:03:42 45° 114° (ESE) 1,700 3.4 -20.2°
Drops below altitude 10° 22:11:11 10° 45° (NE) 3,283 5.4 -20.9°
Sets 22:14:06 0° 40° (NE) 4,237 6.1 -21.2°
